Location: Ballingbuur
(53.0000°N, 5.7667°E)
Time: 06:36:30
(UTC+00:00)

FENGYUN 3A - Pass Details

Date: 29 November 2020
Orbit: 823 x 837 km, 98.4° (Epoch: 23 January)

Event Time Altitude Azimuth Distance (km) Brightness Sun altitude
Rises 04:49:42 0° 13° (NNE) 3,397 6.9 -22.3°
Reaches altitude 10° 04:52:05 10° 10° (N) 2,457 6.1 -22.0°
Maximum altitude 04:57:27 63° 291° (WNW) 931 3.6 -21.2°
Drops below altitude 10° 05:02:46 10° 212° (SSW) 2,431 5.9 -20.4°
Sets 05:05:07 0° 209° (SSW) 3,358 6.6 -20.0°
